Weather History for Cheraw, SC

Change the Weather History Date:

Tuesday, December 17, 2013

  Actual Average (KFLO) Record (KFLO)
Temperature  
Mean Temperature 46 °F 47 °F  
Max Temperature 64 °F 57 °F 80 °F (1956)
Min Temperature 28 °F 36 °F 11 °F (1955)
Degree Days  
Heating Degree Days 19 18  
Month to date heating degree days 282  
Since 1 July heating degree days 704  
Cooling Degree Days 0 0  
Month to date cooling degree days 0  
Year to date cooling degree days 2059  
Moisture  
Dew Point 31 °F    
Average Humidity 61    
Maximum Humidity 100    
Minimum Humidity 24    
Precipitation  
Precipitation 0.00 in 0.09 in 1.74 in (1975)
Month to date precipitation 1.58  
Year to date precipitation 41.48  
Sea Level Pressure  
Sea Level Pressure 30.07 in    
Wind  
Wind Speed - (North)    
Max Wind Speed -    
Max Gust Speed -    
Visibility 10 miles    
Events      
T = Trace of Precipitation, MM = Missing Value Source: NWS Daily Summary

Daily Weather History Graph

Daily Weather History Graph

Search for Another Location

Airport:

Trip Planner

Search our weather history database for the weather conditions in past years. The results will help you decide how hot, cold, wet, or windy it might be!

Date:

Astronomy

Dec. 17, 2013 Rise Set
Actual Time 7:21 AM EST 5:11 PM EST
Civil Twilight 6:53 AM EST 5:39 PM EST
Nautical Twilight 6:21 AM EST 6:10 PM EST
Astronomical Twilight 5:50 AM EST 6:41 PM EST
Moon 5:47 PM EST (12/17) 7:18 AM EST (12/17)
Length of Visible Light 10h 46m
Length of Day
9h 50m
Full, 100% of the Moon is Illuminated
Dec 17
Full
Dec 25
Last Quarter
Jan 1
New
Jan 7
First Quarter
Jan 15
Full

Hourly Weather History & Observations

Time (EST) Temp. Dew Point Humidity Pressure Visibility Wind Dir Wind Speed Gust Speed Precip Events Conditions
12:15 AM 32.0 °F 32.0 °F 100% 30.16 in 10.0 mi North - - N/A   Clear
1:15 AM 33.8 °F 33.8 °F 100% 30.15 in 10.0 mi North - - N/A   Clear
1:35 AM 32.0 °F 32.0 °F 100% 30.15 in 7.0 mi North - - N/A   Clear
1:55 AM 32.0 °F 32.0 °F 100% 30.15 in 9.0 mi North - - N/A   Clear
2:15 AM 32.0 °F 32.0 °F 100% 30.15 in 10.0 mi North - - N/A   Clear
2:35 AM 30.2 °F 30.2 °F 100% 30.15 in 10.0 mi North - - N/A   Clear
2:55 AM 32.0 °F 30.2 °F 93% 30.15 in 10.0 mi North - - N/A   Clear
3:15 AM 32.0 °F 32.0 °F 100% 30.15 in 9.0 mi North - - N/A   Clear
3:35 AM 32.0 °F 32.0 °F 100% 30.15 in 10.0 mi North - - N/A   Clear
3:55 AM 32.0 °F 32.0 °F 100% 30.15 in 10.0 mi North - - N/A   Clear
4:15 AM 30.2 °F 30.2 °F 100% 30.15 in 9.0 mi North - - N/A   Clear
4:35 AM 28.4 °F 28.4 °F 100% 30.15 in 10.0 mi North - - N/A   Clear
4:55 AM 28.4 °F 28.4 °F 100% 30.14 in 10.0 mi North - - N/A   Clear
5:15 AM 30.2 °F 30.2 °F 100% 30.14 in 10.0 mi North - - N/A   Clear
5:35 AM 30.2 °F 30.2 °F 100% 30.15 in 9.0 mi North - - N/A   Clear
5:55 AM 28.4 °F 28.4 °F 100% 30.14 in 8.0 mi North - - N/A   Clear
6:15 AM 30.2 °F 30.2 °F 100% 30.15 in 8.0 mi North - - N/A   Clear
6:35 AM 28.4 °F 28.4 °F 100% 30.15 in 10.0 mi North - - N/A   Clear
6:55 AM 28.4 °F 28.4 °F 100% 30.15 in 10.0 mi North - - N/A   Clear
7:15 AM 28.4 °F 28.4 °F 100% 30.15 in 7.0 mi North - - N/A   Clear
7:35 AM 28.4 °F 28.4 °F 100% 30.15 in 8.0 mi North - - N/A   Clear
7:55 AM 28.4 °F 28.4 °F 100% 30.15 in 7.0 mi North - - N/A   Clear
8:15 AM 32.0 °F 32.0 °F 100% 30.14 in 8.0 mi North - - N/A   Clear
8:35 AM 35.6 °F 32.0 °F 87% 30.14 in 10.0 mi North - - N/A   Clear
8:55 AM 39.2 °F 33.8 °F 81% 30.14 in 10.0 mi North - - N/A   Clear
9:15 AM 41.0 °F 33.8 °F 76% 30.15 in 10.0 mi North - - N/A   Clear
9:35 AM 42.8 °F 35.6 °F 76% 30.14 in 10.0 mi North - - N/A   Clear
9:55 AM 44.6 °F 35.6 °F 71% 30.15 in 10.0 mi North - - N/A   Clear
10:15 AM 48.2 °F 33.8 °F 58% 30.15 in 10.0 mi North - - N/A   Clear
10:35 AM 50.0 °F 32.0 °F 50% 30.14 in 10.0 mi North - - N/A   Clear
10:55 AM 53.6 °F 32.0 °F 44% 30.13 in 10.0 mi North - - N/A   Clear
11:15 AM 53.6 °F 32.0 °F 44% 30.13 in 10.0 mi North - - N/A   Clear
11:35 AM 55.4 °F 32.0 °F 41% 30.11 in 10.0 mi North - - N/A   Clear
11:55 AM 57.2 °F 32.0 °F 38% 30.10 in 10.0 mi North - - N/A   Clear
12:15 PM 57.2 °F 32.0 °F 38% 30.08 in 10.0 mi North - - N/A   Clear
12:35 PM 59.0 °F 32.0 °F 36% 30.07 in 10.0 mi North - - N/A   Clear
12:55 PM 59.0 °F 32.0 °F 36% 30.05 in 10.0 mi North - - N/A   Clear
1:15 PM 62.6 °F 32.0 °F 32% 30.04 in 10.0 mi North - - N/A   Clear
1:35 PM 62.6 °F 32.0 °F 32% 30.03 in 10.0 mi North - - N/A   Clear
1:55 PM 62.6 °F 32.0 °F 32% 30.02 in 10.0 mi North - - N/A   Clear
2:15 PM 64.4 °F 32.0 °F 30% 30.01 in 10.0 mi North - - N/A   Clear
2:35 PM 64.4 °F 32.0 °F 30% 30.00 in 10.0 mi North - - N/A   Clear
2:55 PM 64.4 °F 32.0 °F 30% 29.99 in 10.0 mi North - - N/A   Clear
3:15 PM 64.4 °F 32.0 °F 30% 29.99 in 10.0 mi North - - N/A   Clear
3:35 PM 64.4 °F 28.4 °F 26% 29.98 in 10.0 mi North - - N/A   Clear
3:55 PM 64.4 °F 26.6 °F 24% 29.97 in 10.0 mi North - - N/A   Clear
4:15 PM 62.6 °F 26.6 °F 26% 29.97 in 10.0 mi North - - N/A   Clear
4:35 PM 62.6 °F 26.6 °F 26% 29.97 in 10.0 mi North - - N/A   Clear
4:55 PM 60.8 °F 26.6 °F 27% 29.98 in 10.0 mi North - - N/A   Clear
5:35 PM 57.2 °F 28.4 °F 33% 29.98 in 10.0 mi North - - N/A   Clear
5:55 PM 55.4 °F 28.4 °F 36% 29.99 in 10.0 mi North - - N/A   Clear
6:15 PM 55.4 °F 28.4 °F 36% 29.98 in 10.0 mi North - - N/A   Clear
6:35 PM 53.6 °F 28.4 °F 38% 29.98 in 10.0 mi North - - N/A   Clear
6:55 PM 53.6 °F 30.2 °F 41% 29.98 in 10.0 mi North - - N/A   Clear
7:15 PM 53.6 °F 30.2 °F 41% 29.98 in 10.0 mi North - - N/A   Clear
7:35 PM 53.6 °F 30.2 °F 41% 29.98 in 10.0 mi North - - N/A   Clear
7:55 PM 55.4 °F 30.2 °F 38% 29.97 in 10.0 mi North - - N/A   Clear
8:15 PM 55.4 °F 28.4 °F 36% 29.97 in 10.0 mi North - - N/A   Clear
8:35 PM 53.6 °F 30.2 °F 41% 29.98 in 10.0 mi North - - N/A   Clear
8:55 PM 53.6 °F 28.4 °F 38% 29.98 in 10.0 mi North - - N/A   Clear
9:15 PM 53.6 °F 28.4 °F 38% 29.98 in 10.0 mi North - - N/A   Clear
9:35 PM 53.6 °F 30.2 °F 41% 29.99 in 10.0 mi North - - N/A   Clear
9:55 PM 53.6 °F 30.2 °F 41% 29.99 in 10.0 mi North - - N/A   Clear
10:15 PM 51.8 °F 30.2 °F 44% 30.00 in 10.0 mi North - - N/A   Clear
10:35 PM 50.0 °F 30.2 °F 47% 30.01 in 10.0 mi North - - N/A   Clear
10:55 PM 50.0 °F 30.2 °F 47% 30.02 in 10.0 mi North - - N/A   Clear
11:15 PM 50.0 °F 30.2 °F 47% 30.03 in 10.0 mi North - - N/A   Clear
11:35 PM 48.2 °F 30.2 °F 50% 30.03 in 10.0 mi North - - N/A   Partly Cloudy
11:55 PM 48.2 °F 32.0 °F 54% 30.04 in 10.0 mi North - - N/A   Mostly Cloudy